Погода Шауляй

Погода Шауляй : погода сейчас, прогноз погоды и архив. Всё, что Вы хотите узнать о погоде Шауляй!

Поиск расширенной информации на нашем сайте:

Другие новости

Новости СМИ2

Главная страница сайта

Новости сайта

03.07.2017

Напоминаем, что на нашем специализированном сайте Метеоцентр.Азия вы можете получить высокодетализированные автоматические прогнозы погоды по пунктам России, СНГ и мира в авиационном формате (включающие направление и скорость ветра, видимость, явления погоды, количество и форму облачности, нижнюю и верхнюю границу облачности).

Рекомендуем: лимузины дешево москва

Погода Шауляй - сегодня

Время (UTC), дата Ветер
(°,м/с) 
Видим.   Явления Облачность Т
(°С)
Тd
(°С)
f(%) Тe
(°С)
Pmin
(гПа)
dP
(гПа)
Po
(мм)
O2
(г/м3)
Тmin Tmax R s Состояние
почвы
18 11.11.18 160 (Ю) 6-10{13}  8000 м  дымка  10/10 270 м 
[St]
+4.8 +3.2 89 +2  1022.7  0.3  757  299    +5.4       
21 11.11.18 150 (ЮВ) 6-11{13}  7000 м  дымка  10/10 270 м 
[St]
+4.7 +3.1 89 +2  1023.2  0.5  757  300           
00 12.11.18 160 (Ю) 5-8{11}  4400 м  слаб. морось  10/10 150 м 
[St]
+4.6 +3.9 95 +2  1023.3  0.1  758  300      0.0     
03 12.11.18 160 (Ю) 5-9{11}  2400 м  слаб. морось  10/10 150 м 
[St]
+4.3 +3.7 96 +2  1023.8  0.4  758  300           
06 12.11.18 160 (Ю) 5-9{11}  2900 м  в посл. час дождь{морось}  10/10 120 м 
[St]
+4 +3.4 96 +2  1024.6  0.8  758  301  +4    0.0    влажная 
09 12.11.18 160 (Ю) 5-9{12}  2600 м  дымка  10/10 120 м 
[St]
+4.1 +3.6 97 +2  1025.1  0.5  759  301           
12 12.11.18 180 (Ю) 5-10{11}  6000 м  дымка{дождь}  10/10 210 м 
[St]
+4.3 +3.3 93 +2  1025.4  0.3  759  301      0.5     
15 12.11.18 180 (Ю) 4-8{13}  4500 м  в посл. час дождь  10/10 150 м 
[St]
+4.2 +3.2 93 +2  1025.2  -0.2  759  301           
18 12.11.18 170 (Ю) 5-10{10}  3900 м  дымка{дождь}  10/10 150 м 
[St]
+4.3 +3.3 93 +2  1024.6  -0.6  758  300    +4.4  0.5     
21 12.11.18 180 (Ю) 5-10{12}  3600 м  слаб. дождь{морось}  10/10 180 м 
[Frnb|Ns]
+4.2 +3.4 95 +2  1024.2  -0.4  758  300           
00 13.11.18 180 (Ю) 6-11{12}  3200 м  в посл. час дождь{морось}  10/10 180 м 
[St]
+4.7 +3.7 93 +2  1022.4  -1.7  757  299      0.6     
03 13.11.18 180 (Ю) 6-14{14}  3300 м  дымка  10/10 180 м 
[St]
+5.5 +4.5 93 +3  1021.1  -1.3  756  298           
06 13.11.18 190 (Ю) 7-13{14}  3300 м  дымка  10/10 180 м 
[St]
+6 +5.1 94 +3  1019.8  -1.2  755  297  +4.2    0.6    влажная 
09 13.11.18 200 (Ю) 5-11{13}  3100 м  в посл. час дождь  10/10 150 м 
[St]
+6.9 +5.9 93 +5  1019.8  755  296           
12 13.11.18 210 (ЮЗ) 4-7{13}  2700 м  дымка{дождь}  10/10 210 м 
[St]
+7.5 +6.4 93 +6  1019.3  -0.5  755  295      0.0     
15 13.11.18 200 (Ю) 3-6{08}  2100 м  дождь{морось}  10/10 210 м 
[Frnb|Ns]
+7.5 +7.1 97 +7  1018.6  -0.6  754  295           
18 13.11.18 210 (ЮЗ) 3-5{06}  2800 м  слаб. дождь{морось}  10/10 120 м 
[Frnb|Ns]
+7.6 +7.2 97 +7  1017.7  -0.9  753  294    +7.7     
21 13.11.18 тихо () -3{05}  5000 м  слаб. дождь  10/10 150 м 
[Frnb|Ns]
+7.9 +7.4 97 +8  1017.1  -0.6  753  294           
00 14.11.18 320 (СЗ) 3-4{06}  3100 м  слаб. дождь  10/10 100 м 
[Frnb|Ns]
+8 +7.6 97 +7  1017.5  0.4  753  294         
03 14.11.18 320 (СЗ) 1-3{07}  19000 м  в посл. час дождь  10/10 180 м 
[St]
+7.3 +6.9 97 +8  1018.1  0.6  754  295           
06 14.11.18 тихо () -3{05}  19000 м  {дождь}  10/10 500 м 
[Sc]
+7 +6.3 95 +7  1019.8  1.6  755  296  +6.5      мокрая 
09 14.11.18 280 (З) 2-4{04}  20000 м    10/10 1230 м 
[Sc]
+7.7 +6.6 93 +8  1021.1  1.3  756  295           
12 14.11.18 310 (СЗ) 2-4{05}  20000 м    10/10 870 м 
[Sc]
+9 +7 87 +9  1022.5  1.5  757  294           
15 14.11.18 тихо () -3{05}  8000 м  дымка  10/4 600 м средняя 
[Sc|Ac trans]
+8.4 +7.2 92 +8  1024.3  1.7  758  295           
18 14.11.18 тихо () -3{04}  4100 м  дымка  10/10 930 м 
[Sc]
+7.3 +6.9 97 +7  1025.5  1.2  759  297    +9.2       
Время (UTC), дата Ветер
(°,м/с) 
Видим.   Явления Облачность Т
(°С)
Тd
(°С)
f(%) Тe
(°С)
Pmin
(гПа)
dP
(гПа)
Po
(мм)
O2
(г/м3)
Тmin Tmax R s Состояние
почвы

Для получения пояснительной информации подведите курсор к названию столбца.

ПОГОДА Шауляй - архив

Всё, что Вы хотите узнать о погоде Шауляй - удобно и подробно!

Выберите нужную дату (начиная с 1 января 2015* года) и нажмите кнопку "Найти".
Будут отображены архивные сводки погоды по пункту Шауляй, начиная с указанной даты.


Отображать данные в формате CSV (для использования в таблицах Excel)


Внимание! Наш архив погоды предназначен исключительно для личного некоммерческого использования в познавательных целях. Если Вам необходимы официальные справки о состоянии погоды (для производственных, юридических, коммерческих и т.п. целей), обращайтесь в органы Росгидромета.

*Примечание: данная дата относится к архиву по метеостанциям СССР (Россия, СНГ, Балтия).
Архив по метеостанциям Зарубежной Европы и Азии (кроме Китая) хранится 10 дней, по другим регионам земного шара (Китай, Африка, Америка, Австралия, Океания) - 1 день.

Шауляй - район местоположения метеостанции


Название, широта, долгота, высота метеостанции:
Шауляй 55.9°ш. 23.3°д. 107 м над ур. моря [Литва]

Дополнительная информация

В oтличие oт бoльшинства пoгoдных сайтoв мы публикуем пoдрoбную метеoинфoрмацию в детальнoм прoфессиoнальнoм фoрмате.

Характеристики температуры и влажнoсти вoздуха измеряются на высoте 2 м в тени вдали oт зданий и деревьев.
Скoрoсть ветра измеряется на высoте 10 м (на урoвне рoста челoвека скoрoсть ветра ниже в 1.5-2 раза). Если метеoстанция нахoдится в гoрoде или в лесу, тo скoрoсть ветра занижена на 2-4 м/с пo сравнению с oткрытым местoм. Скoрoсть ветра над акватoриями крупных рек и oзёр, а также на вершинах хoлмoв на 2-5 м/с выше, чем в oбычных услoвиях.
Атмoсфернoе давление в разных тoчках местнoсти мoжет значительнo oтличаться oт давления на метеoстанции, в зависимoсти oт услoвий рельефа (при пoдъёме на 10 м давление пoнижается примернo на 1 мм рт.ст.).